Harvard, Illinois, United States (60033)
Lat: 42.42N, Lon: 88.61W
Wx Zone: ILZ005
Local Info
Past Weather Observations for Today

NOTE: This archive is for the closest National Weather Service station to Harvard. Information may differ from the station used for current weather conditions.

Click here for Long-term Archive

Time Weather Temperature Dewpoint Humidity Pressure Winds Precip Visibility
09:15
Overcast
55°F / 13°C 50°F / 10°C 82% 30.18 in
(1022 mb)
NE 5.8 mph
(NE 9 kph)
- 10SM
08:55
Overcast
55°F / 13°C 52°F / 11°C 88% 30.18 in
(1022 mb)
N 5.8 mph
(N 9 kph)
- 10SM
08:35
Overcast
54°F / 12°C 52°F / 11°C 94% 30.18 in
(1022 mb)
NE 6.9 mph
(NE 11 kph)
- 10SM
08:15
Overcast
54°F / 12°C 50°F / 10°C 88% 30.18 in
(1022 mb)
NE 4.6 mph
(NE 7 kph)
- 10SM
07:55
Overcast
52°F / 11°C 50°F / 10°C 94% 30.18 in
(1022 mb)
NE 5.8 mph
(NE 9 kph)
- 10SM
07:35
Overcast
52°F / 11°C 50°F / 10°C 94% 30.15 in
(1021 mb)
NNE 5.8 mph
(NNE 9 kph)
- 10SM
07:15
Overcast
52°F / 11°C 50°F / 10°C 94% 30.15 in
(1021 mb)
NNE 5.8 mph
(NNE 9 kph)
- 10SM
06:55
Overcast
52°F / 11°C 50°F / 10°C 94% 30.15 in
(1021 mb)
NE 5.8 mph
(NE 9 kph)
- 10SM
06:35
Overcast
50°F / 10°C 50°F / 10°C 100% 30.12 in
(1020 mb)
NE 5.8 mph
(NE 9 kph)
- 10SM
06:15
Overcast
50°F / 10°C 50°F / 10°C 100% 30.12 in
(1020 mb)
N 3.5 mph
(N 6 kph)
- 10SM
05:55
Overcast
50°F / 10°C 50°F / 10°C 100% 30.12 in
(1020 mb)
NNE 3.5 mph
(NNE 6 kph)
- 7SM
05:35
Overcast
Fog And Mist
50°F / 10°C 50°F / 10°C 100% 30.12 in
(1020 mb)
NNE 5.8 mph
(NNE 9 kph)
- 5SM
05:15
Overcast
Fog And Mist
50°F / 10°C 50°F / 10°C 100% 30.12 in
(1020 mb)
NE 5.8 mph
(NE 9 kph)
- 3SM
04:55
Overcast
Fog And Mist
50°F / 10°C 50°F / 10°C 100% 30.09 in
(1019 mb)
NE 5.8 mph
(NE 9 kph)
- 1 1/2SM
04:35
Overcast
Fog And Mist
48°F / 9°C 48°F / 9°C 100% 30.09 in
(1019 mb)
NE 6.9 mph
(NE 11 kph)
- 2SM
04:15
Overcast
Fog And Mist
48°F / 9°C 48°F / 9°C 100% 30.09 in
(1019 mb)
NNE 5.8 mph
(NNE 9 kph)
- 5SM
03:55
Overcast
Fog And Mist
48°F / 9°C 48°F / 9°C 100% 30.09 in
(1019 mb)
NNE 5.8 mph
(NNE 9 kph)
- 5SM
03:35
Partly Cloudy
Fog And Mist
43°F / 6°C 43°F / 6°C 100% 30.09 in
(1019 mb)
N 3.5 mph
(N 6 kph)
- 3SM
03:15
Clear
Fog And Mist
43°F / 6°C 43°F / 6°C 100% 30.09 in
(1019 mb)
Calm - 5SM
02:55
Clear
43°F / 6°C 43°F / 6°C 100% 30.09 in
(1019 mb)
Calm - 7SM
02:35
Clear
43°F / 6°C 43°F / 6°C 100% 30.09 in
(1019 mb)
Calm - 10SM
02:15
Partly Cloudy
45°F / 7°C 45°F / 7°C 100% 30.09 in
(1019 mb)
Calm - 10SM
01:55
Clear
41°F / 5°C 41°F / 5°C 100% 30.06 in
(1018 mb)
Calm - 7SM
01:35
Clear
Fog And Mist
41°F / 5°C 41°F / 5°C 100% 30.06 in
(1018 mb)
Calm - 5SM
01:15
Clear
Fog And Mist
41°F / 5°C 41°F / 5°C 100% 30.06 in
(1018 mb)
Calm - 4SM
00:55
Clear
Fog And Mist
41°F / 5°C 41°F / 5°C 100% 30.06 in
(1018 mb)
Calm - 4SM
00:35
Clear
41°F / 5°C 41°F / 5°C 100% 30.06 in
(1018 mb)
Calm - 10SM
00:15
Clear
Fog And Mist
43°F / 6°C 43°F / 6°C 100% 30.04 in
(1017 mb)
SW 3.5 mph
(SW 6 kph)
- 2SM
Time Weather Temperature Dewpoint Humidity Pressure Winds Precip Visibility


Weather for websites

WeatherForYou.com, LLC is not responsible for any damages or problems caused by this service. Current weather conditions are obtained from the closest station including government and personal stations which may have varying degrees of accuracy. Weather forecasts are derived from the NOAA NDFD. Like all things, this site belongs to Jesus Christ... He just trusts me to maintain it. If you have any questions or comments email webmaster@weatherforyou.com

Copyright © 2014, WeatherForYou.com LLC. All rights reserved.